Gwinn, MI

8:10 PM EDT on August 18, 2017 (GMT -0400)
Sawyer International

Weather History for KSAW - March, 2013

Change the Weather History Date:

Tuesday, March 12, 2013

  Actual Average (KESC) Record (KESC)
Temperature  
Mean Temperature 22 °F -  
Max Temperature 30 °F 33 °F 60 °F (2016)
Min Temperature 15 °F 15 °F -7 °F (1984)
Degree Days  
Heating Degree Days 42    
Moisture  
Dew Point 17 °F    
Average Humidity 85    
Maximum Humidity 93    
Minimum Humidity 51    
Precipitation  
Precipitation 0.00 in - - ()
Sea Level Pressure  
Sea Level Pressure 29.68 in    
Wind  
Wind Speed 12 mph (NW)    
Max Wind Speed 21 mph    
Max Gust Speed 29 mph    
Visibility 5 miles    
Events Snow    
Averages and records for this station are not official NWS values.
T = Trace of Precipitation, MM = Missing Value Source: NWS Daily Summary

Daily Weather History Graph

Daily Weather History Graph

Search for Another Location

Airport or City:

Trip Planner

Search our weather history database for the weather conditions in past years. The results will help you decide how hot, cold, wet, or windy it might be!

Date:

Astronomy

Mar. 12, 2013 Rise Set
Actual Time 8:07 AM EDT 7:51 PM EDT
Civil Twilight 7:37 AM EDT 8:21 PM EDT
Nautical Twilight 7:02 AM EDT 8:56 PM EDT
Astronomical Twilight 6:27 AM EDT 9:32 PM EDT
Moon 8:08 AM EDT (3/12) 9:13 PM EDT (3/12)
Length of Visible Light 12h 43m
Length of Day
11h 43m
New Moon, 1% of the Moon is Illuminated
Mar 12
New Moon
Mar 19
First Quarter
Mar 27
Full
Apr 3
Last Quarter
Apr 10
New

Hourly Weather History & Observations

Time (EDT) Temp. Windchill Dew Point Humidity Pressure Visibility Wind Dir Wind Speed Gust Speed Precip Events Conditions
12:17 AM 23.9 °F 10.8 °F 21.2 °F 89% 29.55 in 10.0 mi NNW 16.1 mph 24.2 mph N/A   Overcast
12:36 AM 23.9 °F 11.7 °F 21.2 °F 89% 29.55 in 7.0 mi NNW 13.8 mph 23.0 mph N/A   Overcast
12:57 AM 23.5 °F 10.8 °F 20.7 °F 89% 29.55 in 7.0 mi North 15.0 mph 23.0 mph N/A   Overcast
1:17 AM 23.0 °F 9.2 °F 20.3 °F 89% 29.56 in 10.0 mi NNW 17.3 mph 23.0 mph N/A   Overcast
1:36 AM 22.8 °F 10.9 °F 19.9 °F 89% 29.56 in 10.0 mi NW 12.7 mph 21.9 mph N/A   Overcast
1:57 AM 22.5 °F 8.5 °F 19.4 °F 88% 29.57 in 10.0 mi NW 17.3 mph 20.7 mph N/A   Overcast
2:17 AM 22.1 °F 10.6 °F 18.9 °F 87% 29.58 in 10.0 mi NNW 11.5 mph - N/A   Overcast
2:36 AM 21.9 °F 11.0 °F 19.0 °F 89% 29.59 in 10.0 mi NW 10.4 mph - N/A   Overcast
2:57 AM 21.6 °F 10.6 °F 18.5 °F 88% 29.60 in 10.0 mi NW 10.4 mph - N/A   Overcast
3:16 AM 21.4 °F 11.1 °F 18.3 °F 88% 29.60 in 10.0 mi NW 9.2 mph - N/A   Overcast
3:37 AM 21.2 °F 10.1 °F 18.1 °F 88% 29.60 in 10.0 mi NNW 10.4 mph - N/A   Overcast
3:57 AM 21.2 °F 11.7 °F 18.1 °F 88% 29.60 in 10.0 mi NW 8.1 mph - N/A   Overcast
4:16 AM 21.0 °F 10.6 °F 17.6 °F 87% 29.61 in 10.0 mi NW 9.2 mph - N/A   Overcast
4:37 AM 21.0 °F 11.4 °F 17.4 °F 86% 29.61 in 10.0 mi NW 8.1 mph - N/A Snow Light Snow
4:56 AM 20.7 °F 11.9 °F 17.6 °F 88% 29.61 in 4.0 mi NW 6.9 mph - N/A Snow Light Snow
5:17 AM 20.1 °F 12.3 °F 17.6 °F 90% 29.62 in 2.5 mi WNW 5.8 mph - N/A Snow Light Snow
5:37 AM 19.8 °F 14.7 °F 17.2 °F 90% 29.62 in 2.0 mi WNW 3.5 mph - N/A Snow Light Snow
5:56 AM 19.4 °F 14.3 °F 17.1 °F 91% 29.63 in 2.0 mi West 3.5 mph - N/A Snow Light Snow
6:50 AM 19.4 °F 14.3 °F 15.8 °F 86% 29.64 in 4.0 mi WNW 3.5 mph - N/A Snow Light Snow
7:55 AM 19.4 °F 11.5 °F 15.8 °F 86% 29.65 in 10.0 mi WNW 5.8 mph - N/A Snow Light Snow
8:50 AM 19.4 °F - 15.8 °F 86% 29.67 in 10.0 mi Calm Calm - N/A Snow Light Snow
9:55 AM 19.4 °F 12.8 °F 15.8 °F 86% 29.68 in 1.0 mi WNW 4.6 mph - N/A Snow Light Snow
10:55 AM 19.4 °F 10.4 °F 14.0 °F 80% 29.69 in 1.5 mi NNW 6.9 mph - N/A Snow Light Snow
11:50 AM 19.4 °F 11.5 °F 14.0 °F 80% 29.70 in 1.5 mi NW 5.8 mph - N/A Snow Light Snow
12:50 PM 19.4 °F 9.5 °F 14.0 °F 80% 29.70 in 7.0 mi NNW 8.1 mph - N/A Snow Light Snow
1:50 PM 21.2 °F 10.9 °F 14.0 °F 74% 29.71 in 5.0 mi WNW 9.2 mph - N/A Snow Light Snow
2:50 PM 21.2 °F 10.1 °F 14.0 °F 74% 29.72 in 4.0 mi WNW 10.4 mph - N/A Snow Light Snow
3:55 PM 19.4 °F 7.2 °F 15.8 °F 86% 29.73 in 1.2 mi NW 11.5 mph - N/A Snow Light Snow
4:50 PM 30.2 °F 21.9 °F 14.0 °F 51% 29.75 in 1.0 mi NNW 9.2 mph - N/A Snow Light Snow
5:50 PM 17.6 °F 5.0 °F 12.2 °F 79% 29.77 in 3.0 mi NW 11.5 mph 18.4 mph N/A Snow Light Snow
6:50 PM 17.6 °F 7.3 °F 12.2 °F 79% 29.79 in 2.5 mi WNW 8.1 mph - N/A Snow Light Snow
7:50 PM 17.6 °F 7.3 °F 12.2 °F 79% 29.81 in 2.5 mi WNW 8.1 mph - N/A Snow Light Snow
8:50 PM 15.8 °F 4.2 °F 14.0 °F 93% 29.81 in 1.2 mi WNW 9.2 mph - N/A Snow Light Snow
9:50 PM 17.6 °F 6.4 °F 14.0 °F 86% 29.82 in 1.0 mi NW 9.2 mph - N/A Snow Snow
10:16 PM 18.3 °F 5.9 °F 15.8 °F 90% 29.82 in 1.2 mi NNW 11.5 mph - N/A Snow Light Snow
10:37 PM 20.3 °F 5.2 °F 17.4 °F 89% 29.82 in 1.5 mi North 18.4 mph 27.6 mph N/A Snow Light Snow
10:57 PM 20.3 °F 5.2 °F 17.6 °F 89% 29.82 in 1.5 mi North 18.4 mph 26.5 mph N/A Snow Light Snow
11:16 PM 20.5 °F 4.6 °F 17.6 °F 89% 29.83 in 1.0 mi North 20.7 mph 28.8 mph N/A Snow Light Snow
11:37 PM 20.5 °F 5.5 °F 17.6 °F 89% 29.82 in 1.5 mi North 18.4 mph 25.3 mph N/A Snow Light Snow
11:56 PM 20.8 °F 5.9 °F 18.0 °F 89% 29.83 in 1.2 mi North 18.4 mph 28.8 mph N/A Snow Light Snow